sat.trackr.live / text

‹ back to catalog

STARLINK-31833

NORAD 59733 · 2024-090D

PAYLOAD ACTIVE UNKNOWN

§ Identity

Operator
Country
US
Launch date
2024-05-13
Launch site
AFETR
Launch vehicle
Mass (kg)
RCS (m²)

Purposes: comms

External: N2YO · Heavens-Above · Gunter

§ Orbital elements

Epoch: 2026-09-21T10:14:38.767776Z

Period
94.27 min
Inclination
43.0026°
Eccentricity
0.0001172
Mean motion
15.27587096 rev/d
Perigee alt
482.2 km
Apogee alt
483.8 km
Semi-major
6,861.2 km
B*
4.1774e-5
RAAN
158.2421°
Arg perigee
276.3379°
Mean anomaly
83.7339°
Rev number
13,337

§ Raw data

STARLINK-318331 59733U 24090D   26264.42683759  .00000888  00000+0  41774-4 0  99962 59733  43.0026 158.2421 0001172 276.3379  83.7339 15.27587096133375

JSON: /api/v1/satellites/59733 · /tle

For live sub-satellite position, see the globe view (requires WebGL).

§ Visibility from observer

Set your observer location to see the next 7 days of passes ≥ 10°. The values pass through the URL so the page stays shareable.

No JS? Fill the form by hand. The geolocation button needs JavaScript.